Location: *
(17.3280°S, 114.7300°W)
Time: 03:30:11
(UTC+00:00)

X-37B - Pass Details

Date: 27 October 2020
Orbit: 384 x 390 km, 45.0° (Epoch: 26 November)

Event Time Altitude Azimuth Distance (km) Brightness Sun altitude
Exits shadow 11:59:12 17° 349° (N) 1,054 2.5 -15.3°
Drops below altitude 10° 12:00:25 10° 7° (N) 1,409 3.3 -15.1°
Sets 12:02:44 0° 22° (NNE) 2,255 4.5 -14.5°
